Probability
0 0 0 0 0 0 0 0 0 0 0 0 0 0 0 0 0 0 0 0 0 0 0 0 0 0 0 0 0 0 0 0 0 0 0 0 0 0 0 0 0 0 0 0
0 0 0 0 0 0 0 0 0 0 0 0 0 0 0 0 0 0 0 0 0 0 0 0 0 0 0 0 0 0 0 0 0 0 0 0 0 0 0 0 0 0 0 0
0 0 0 0 0 0 0 0 0 0 0 0 0 0 0 0 0 0 0 0 0 0 0 0 0 0 0 0 0 0 0 0 0 0 0 0 0 0 0 0 0 0 0 0
0 0 0 0 0 0 0 0 0 0 0 0 0 0 0 0 0 0 0 0 0 0 0 0 0 0 0 0 0 0 0 0 0 0 0 0 0 0 0 0 0 0 0 0
0 0 0 0 0 0 0 0 0 0 0 0 0 0 0 0 0 0 0 0 0 0 0 0 0 0 0 0 0 0 0 0 0 0 1 1 0 0 0 0 0 0 0 0
0 0 0 0 0 0 0 0 0 0 0 0 0 0 0 0 0 0 0 0 0 0 0 0 0 0 0 0 0 0 0 0 0 1 2 2 1 0 0 0 0 0 0 0
0 0 0 0 0 0 0 0 0 0 0 0 0 0 0 0 0 0 0 0 0 0 0 0 0 0 0 0 0 0 0 0 1 2 3 2 1 0 0 0 1 1 0 0
0 0 0 0 0 0 0 0 0 0 0 0 0 0 0 0 0 0 0 0 0 0 0 0 0 0 0 0 0 0 1 1 2 2 2 1 0 0 0 1 2 2 1 0
0 0 0 0 0 0 0 0 0 0 0 0 0 0 0 0 0 0 0 0 0 0 0 0 0 0 0 0 0 0 1 1 1 1 1 0 1 1 1 2 3 2 1 0
0 0 0 0 0 0 0 0 0 0 0 0 0 0 0 0 0 0 0 0 0 0 0 0 0 0 0 0 0 0 1 1 1 1 1 1 2 3 2 3 3 2 1 0
0 0 0 0 0 0 0 0 0 0 0 0 0 0 0 0 0 0 0 0 0 0 0 0 0 0 0 0 0 0 0 1 2 2 3 3 3 4 3 2 2 2 1 0
0 0 0 0 0 0 0 0 0 0 0 0 0 0 0 0 0 0 0 0 0 0 0 0 0 0 0 0 0 0 0 1 1 3 4 4 3 3 2 1 1 1 0 0
0 0 0 0 0 0 0 0 0 0 0 0 0 0 0 0 0 0 0 0 0 0 0 0 0 0 0 0 0 0 0 0 0 2 3 3 3 3 2 1 0 0 0 0
0 0 0 0 0 0 0 0 0 0 0 0 0 0 0 0 0 0 0 0 0 0 0 0 0 0 0 0 0 0 0 0 0 2 3 3 3 3 2 1 0 0 0 0
0 0 0 0 0 0 0 0 0 0 0 0 0 0 0 0 0 0 0 0 0 0 0 0 0 0 0 0 0 0 0 0 0 2 3 3 3 3 2 1 0 0 0 0
0 0 0 0 0 0 0 0 0 0 0 0 0 0 0 0 0 0 0 0 0 0 0 0 0 0 0 0 0 0 0 0 0 2 3 3 3 3 2 1 0 1 1 0
0 0 0 0 0 0 0 0 0 0 0 0 0 0 0 0 0 0 0 0 0 0 0 0 0 0 0 0 0 0 0 0 0 1 3 3 3 2 2 1 0 1 2 1
0 0 0 0 0 0 0 0 0 0 0 0 0 0 0 0 0 0 0 0 0 0 0 0 0 0 0 0 0 0 0 0 0 1 2 2 1 1 1 0 1 2 2 2
0 0 0 0 0 0 0 0 0 0 0 0 0 0 0 0 0 0 0 0 0 0 0 0 0 0 0 0 0 0 0 0 0 0 1 1 1 1 1 1 2 3 3 3
0 0 0 0 0 0 0 0 0 0 0 0 0 0 0 0 0 0 0 0 0 0 0 0 0 0 0 0 0 0 0 0 0 0 1 1 2 2 2 3 3 3 3 3
0 0 0 0 0 0 0 0 0 0 0 0 0 0 0 0 0 0 0 0 0 0 0 0 0 0 0 0 0 0 0 0 0 0 1 2 2 2 2 2 2 3 3 3
0 0 0 0 0 0 0 0 0 0 0 0 0 0 0 0 0 0 0 0 0 0 0 0 0 0 0 0 0 0 0 0 0 0 0 1 1 1 1 1 1 1 3 3
0 0 0 0 0 0 0 0 0 0 0 0 0 0 0 0 0 0 0 0 0 0 0 0 0 0 0 0 0 0 0 0 0 0 0 1 1 1 0 1 1 1 2 2
0 0 0 0 0 0 0 0 0 0 0 0 0 0 0 0 0 0 0 0 0 0 0 0 0 0 0 0 0 0 1 1 1 1 1 2 2 2 2 2 2 1 1 1
0 0 0 0 0 0 0 0 0 0 0 0 0 0 0 0 0 0 0 0 0 0 0 0 0 0 0 0 0 0 1 2 2 2 2 2 2 2 2 2 1 1 0 0
0 0 0 0 0 0 0 0 0 0 0 0 0 0 0 0 0 0 0 0 0 0 0 0 0 0 0 0 0 0 1 1 1 1 1 1 1 1 1 1 0 0 0 0
0 0 0 0 0 0 0 0 0 0 0 0 0 0 0 0 0 0 0 0 0 0 0 0 0 0 0 0 0 0 0 0 0 0 0 0 0 0 0 0 0 0 0 0
Wind_Speed
4 3 4 6 7 8 9 9 9 7 7 5 3 3 3 2 2 2 2 3 3 3 3 4 4 3 3 4 4 5 6 6 6 5 5 4 4 4 3 3 4 3 3 3
6 5 6 8 9 9 9 9 9 9 8 4 4 3 3 3 2 3 3 3 3 4 4 4 4 4 3 4 4 5 6 6 5 5 5 5 4 4 4 4 4 3 3 3
7 5 7 10 9 10 9 8 9 10 6 3 4 4 4 4 3 4 4 4 4 4 4 4 4 4 4 4 4 5 6 6 5 6 6 6 5 5 5 5 4 4 4 3
5 7 11 2 1 5 8 8 8 7 5 4 5 4 4 4 3 3 3 3 3 3 4 4 4 4 4 4 4 5 5 5 6 6 6 6 5 5 5 5 4 4 4 4
6 8 8 4 5 5 7 7 6 6 5 4 3 4 4 3 3 4 4 3 3 3 3 3 4 4 4 4 4 4 5 5 5 6 6 6 6 6 5 5 4 4 4 3
7 8 7 3 4 3 6 7 4 5 4 3 3 5 2 1 3 3 3 2 2 2 3 3 3 3 4 5 5 5 5 5 5 6 6 7 6 6 5 5 5 4 4 4
10 9 7 2 4 5 7 1 3 3 3 4 5 3 2 2 2 3 3 2 2 2 2 2 2 3 4 5 5 5 5 4 5 6 7 6 5 5 5 5 5 4 4 3
9 10 7 6 7 7 2 2 1 2 3 4 4 3 2 2 2 2 2 2 2 2 3 2 3 4 4 5 5 4 4 5 5 6 6 5 5 5 5 5 5 5 4 3
7 5 0 6 6 2 2 3 3 3 3 4 4 4 3 3 2 3 3 3 3 3 3 3 3 4 4 4 4 4 5 5 5 5 5 5 6 6 5 5 4 4 4 4
9 8 6 7 7 6 5 5 4 4 4 4 4 4 3 3 3 3 3 3 3 3 3 3 3 4 4 4 3 5 5 5 5 5 5 5 4 4 5 5 5 4 4 4
11 8 7 8 9 7 6 5 4 4 5 5 4 4 4 3 3 3 3 3 3 4 4 4 4 4 3 3 4 5 5 5 5 4 4 4 4 3 4 4 4 4 4 4
9 8 8 7 6 6 6 6 6 5 5 5 5 5 4 4 4 4 4 4 4 4 4 4 4 4 3 3 4 5 4 4 4 4 4 4 4 3 2 2 3 3 2 2
8 7 7 6 6 7 7 7 6 6 6 6 5 5 5 4 4 4 4 5 5 5 5 5 4 4 3 4 4 5 5 4 3 4 4 4 4 4 4 3 3 3 3 3
8 6 7 7 6 6 6 7 6 6 6 6 5 5 5 5 4 4 4 4 4 4 4 4 4 4 4 4 4 5 4 4 3 3 4 4 4 4 4 4 4 3 4 5
9 9 8 6 6 6 6 6 7 7 6 6 5 5 5 5 5 4 4 4 4 4 4 4 4 4 3 4 5 5 5 4 3 3 3 3 4 4 4 4 4 3 3 4
8 7 7 7 7 7 7 8 8 7 6 6 5 5 5 4 4 3 3 3 4 4 4 4 4 3 3 4 5 4 4 4 3 4 4 4 4 4 4 4 4 4 3 3
7 8 8 8 8 8 8 8 7 7 6 6 5 4 4 4 4 3 3 3 4 3 3 3 3 3 3 4 4 3 3 4 5 4 4 4 4 4 4 4 4 4 3 3
8 8 7 7 7 7 7 6 6 6 5 4 4 4 4 5 4 3 3 3 3 3 3 3 2 2 3 3 3 3 3 3 4 4 4 4 4 4 4 4 4 4 3 4
6 6 6 6 6 6 5 5 5 4 4 4 4 4 4 4 4 3 3 3 4 4 3 2 3 4 3 3 3 3 3 4 4 4 3 3 4 4 4 4 4 4 3 3
4 4 4 4 4 4 4 4 3 3 3 4 4 4 4 4 3 4 4 4 3 3 2 2 3 3 3 3 3 3 4 4 4 4 3 3 3 4 3 4 4 4 3 3
3 3 3 3 3 3 3 3 3 3 3 4 4 4 4 3 3 3 3 3 3 2 2 3 3 3 2 2 3 3 4 4 4 4 4 4 4 4 4 4 4 4 4 4
3 3 3 3 3 3 3 3 3 4 4 4 4 4 4 3 3 3 4 3 2 2 2 3 2 2 3 3 3 3 4 4 4 4 4 4 4 4 4 4 4 4 4 4
3 3 3 4 4 4 3 3 4 4 4 4 4 5 5 4 3 3 3 2 2 3 3 2 2 3 4 4 3 3 4 4 4 4 4 4 4 4 4 4 4 4 4 4
4 4 4 4 4 4 4 4 4 4 4 4 4 4 4 3 3 3 2 2 2 3 2 2 4 4 5 3 3 4 4 4 4 4 4 3 3 4 4 4 4 4 4 4
3 4 4 4 4 4 4 4 4 3 3 3 3 3 3 3 3 2 2 3 3 3 2 3 4 4 4 3 3 3 3 3 3 3 3 3 4 4 4 4 4 4 4 4
3 3 3 4 4 3 2 2 3 3 2 2 2 1 1 1 2 2 2 2 3 3 2 2 2 3 3 3 3 3 3 3 4 4 4 4 4 4 4 4 5 4 4 4
3 3 3 3 2 2 2 2 3 3 3 3 2 2 1 1 1 1 2 2 2 2 2 2 2 2 2 2 2 3 3 3 3 3 4 4 4 4 4 5 4 4 4 4
Wind_Direction
261 271 256 253 244 233 242 257 265 271 270 276 264 259 251 237 222 218 215 212 212 216 214 213 218 218 215 213 204 200 199 203 202 195 190 191 186 191 187 186 191 188 189 194
236 236 249 253 247 242 243 251 256 263 265 279 274 254 248 230 225 232 230 229 222 219 217 219 219 218 214 210 204 201 202 203 200 201 195 194 194 192 188 188 190 185 191 192
240 237 250 246 238 233 234 237 247 255 263 257 247 239 245 233 230 237 235 233 227 223 221 225 224 218 213 213 201 201 204 200 199 200 196 197 194 191 187 186 185 186 191 191
247 234 244 247 143 236 242 244 246 255 267 255 256 254 247 240 245 244 244 239 235 234 229 232 228 218 213 206 202 202 203 199 200 199 197 195 192 192 195 190 180 186 188 192
240 247 258 237 213 220 236 246 237 240 246 255 257 243 221 223 245 247 240 236 231 234 233 234 228 218 210 206 205 204 205 205 200 198 198 197 194 193 194 189 181 181 185 186
234 248 253 220 156 192 245 244 203 224 230 231 226 242 222 232 246 237 240 231 229 230 230 224 223 218 213 212 211 213 214 212 205 201 199 200 200 196 189 185 184 181 179 186
235 246 255 207 158 189 230 249 133 217 230 219 233 282 309 260 252 230 223 221 221 222 219 219 221 218 221 218 220 224 221 212 205 201 200 199 195 190 184 181 179 181 178 183
225 236 237 157 182 216 278 40 222 242 244 244 257 276 265 253 244 229 215 210 215 222 222 211 212 218 227 232 230 224 216 207 205 201 193 187 185 185 184 182 181 183 184 183
228 243 290 186 212 234 297 273 266 261 258 254 258 257 258 261 255 234 221 211 212 221 227 214 212 220 230 239 234 221 213 207 202 195 189 185 183 180 180 183 189 191 190 192
238 239 234 229 234 234 243 258 268 265 253 245 251 253 252 254 253 237 225 217 212 213 220 220 222 223 231 232 231 219 211 206 197 187 184 184 186 187 185 187 191 194 194 197
243 243 241 233 227 231 237 248 256 256 250 247 250 255 254 255 256 246 231 220 215 218 223 225 224 230 231 227 221 218 208 201 195 186 179 180 181 188 193 191 193 197 198 196
247 244 244 246 235 232 235 243 245 244 244 245 243 248 253 258 259 249 238 224 218 220 226 228 225 226 222 218 219 218 208 199 193 186 180 176 171 161 109 151 132 156 176 194
267 273 268 271 248 240 244 245 243 244 244 246 246 246 251 255 250 245 238 227 220 219 224 228 228 227 225 218 212 214 208 199 194 190 185 182 177 178 169 146 130 153 166 166
255 254 251 246 243 241 242 241 241 244 248 250 251 250 250 251 247 243 241 233 226 221 223 225 226 230 229 217 214 210 206 197 196 193 191 189 186 187 187 179 170 169 166 165
242 247 254 255 250 246 241 234 232 236 242 245 244 240 236 237 241 244 243 239 228 220 221 222 227 228 225 216 216 213 205 199 194 191 190 193 192 189 188 187 181 171 162 157
244 245 244 241 243 243 239 236 235 239 242 243 240 236 233 234 237 239 236 231 227 223 220 222 228 228 222 220 217 212 204 185 186 189 190 191 193 190 186 185 185 181 175 170
236 236 236 239 242 243 242 242 239 239 241 239 238 235 227 225 225 228 232 235 239 236 228 227 232 227 221 222 217 207 198 180 179 194 197 194 191 190 191 189 189 188 181 167
240 246 246 246 247 247 245 242 238 238 237 233 225 220 221 225 231 232 235 235 235 235 238 235 229 227 222 224 220 209 199 192 194 198 196 196 195 190 190 192 192 192 179 164
240 246 247 247 248 243 241 241 240 236 229 219 218 221 225 230 229 227 229 233 237 238 237 222 205 218 219 212 215 203 199 195 194 193 192 182 194 197 193 194 195 193 185 181
230 234 239 242 242 237 234 238 235 229 225 220 221 225 226 225 224 228 230 234 241 254 250 227 213 215 216 200 197 202 197 196 194 191 190 195 198 199 200 199 198 195 195 198
238 240 244 245 241 238 231 229 228 227 220 218 222 227 231 230 231 231 232 242 247 239 231 217 218 213 209 201 200 206 198 194 192 193 195 198 201 202 204 203 201 201 202 204
255 250 252 254 250 248 241 234 230 228 223 219 224 228 228 231 236 241 241 244 246 231 228 219 217 198 202 204 209 208 204 199 199 197 201 204 205 205 207 208 207 204 203 205
266 255 253 255 255 257 254 246 238 234 232 228 226 228 233 239 239 238 242 235 225 222 231 221 209 195 206 212 208 206 205 205 204 203 205 206 208 209 210 209 208 206 206 203
283 275 268 263 258 254 251 250 247 243 241 240 237 236 237 238 246 252 256 216 224 231 235 200 191 199 210 217 211 207 206 208 208 207 206 209 211 211 211 209 207 207 206 206
279 275 272 265 257 258 261 259 253 246 241 239 238 236 238 238 242 244 238 216 202 218 227 198 199 210 214 213 213 215 215 213 213 211 211 211 213 212 210 208 209 209 208 209
283 279 280 274 274 270 261 250 247 245 238 234 234 232 237 232 231 234 230 222 216 223 232 218 208 214 220 214 217 221 221 212 212 214 214 213 215 215 211 210 213 215 215 214
284 280 274 270 267 265 256 247 245 246 242 238 241 241 235 230 226 228 227 222 219 224 231 229 226 225 225 224 224 225 225 219 212 212 216 218 218 216 212 212 214 214 212 211